Content
SEND FEEDBACK

Daily
Averages
Monthly
Summary
United States of America

PUT IN BAY, OHIO


Home > North America > United States > Ohio
Elevation: 171 meters     Latitude: 41 39N     Longitude: 082 48W

WEATHER
 
SELECT A DAY
Number of Records: 124,267;   Date Range: 12/10/00 - 9/29/14
 
SHARE

PRINT THIS DATA

[ ← Previous Day ]
WEATHER ALMANAC - 3 FEBRUARY, 2013
[ Next Day → ]
[ °F ]   °C
Weather ElementAverageHighLow
Temperature-9.3 °C-6.3 °C (6:00 pm)-13.2 °C (4:00 am)
Dewpoint-12.9 °C-8.3 °C (6:00 pm)-15.7 °C (6:00 am)
Humidity74.5 %87 % (4:00 am)59 % (11:00 pm)
Barometer1014.6 hPa1017.6 hPa (11:00 pm)1012.5 hPa (3:00 pm)
Wind Speed12.1 km/h25.9 km/h (5:00 pm)
Wind Gust38.9 km/h (5:00 pm)
Weather ElementAverage
Wind DirectionWNW (293.5 °)

Weather ElementTotal
Precipitation---
Heating Degree Days28.1 (Base 18.3)
Averaged from 26 records on 3 February, 2013
WEATHER CONDITIONS BREAKOUT
WIND DIRECTION BREAKOUT
WEATHER BY HOUR - 3 FEBRUARY, 2013
[ °F ]   °C
Local TimeTemperatureDewpointHumidityBarometerVisibilityWind DirectionWind SpeedGust SpeedPrecipitationEventsConditions
1:00 AM-10.6 °C-13.3 °C72 %1016.6 hPaNorth (350°)5.6 km/h
1:00 AM-10.4 °C-13.3 °C80 %1016.6 hPaNorth (350°)5.6 km/h
2:00 AM-10.8 °C-13.3 °C82 %1016.3 hPaNorth (360°)3.7 km/h
4:00 AM-13.2 °C-15 °C87 %1015.2 hPaNorth (350°)1.9 km/h
5:00 AM-12.6 °C-14.9 °C83 %1014.6 hPaNW (320°)3.7 km/h
6:00 AM-13.1 °C-15.7 °C81 %1014.6 hPaNW (310°)3.7 km/h
7:00 AM-12.2 °C-14.8 °C81 %1014.2 hPaWNW (300°)3.7 km/h
7:00 AM-12.2 °C-15 °C73 %1014.2 hPaWNW (300°)3.7 km/h
8:00 AM-11.9 °C-15.4 °C76 %1014.6 hPaNW (310°)5.6 km/h
9:00 AM-11.5 °C-15.4 °C73 %1014.6 hPaNNW (340°)3.7 km/h
10:00 AM-10.6 °C-15.3 °C69 %1014.6 hPaWNW (300°)7.4 km/h
11:00 AM-9.8 °C-15.1 °C66 %1014.2 hPaWest (270°)11.1 km/h
12:00 PM-9.5 °C-14.2 °C69 %1013.9 hPaWest (260°)16.7 km/h
1:00 PM-8.6 °C-12.7 °C73 %1013.5 hPaWest (270°)16.7 km/h
1:00 PM-8.3 °C-12.8 °C60 %1013.5 hPaWest (270°)16.7 km/h
2:00 PM-7.8 °C-11.4 °C76 %1012.9 hPaWSW (250°)16.7 km/h
3:00 PM-7 °C-11 °C74 %1012.5 hPaWSW (240°)18.5 km/h
4:00 PM-6.5 °C-10.4 °C74 %1013.2 hPaWSW (250°)18.5 km/h
5:00 PM-6.4 °C-9.4 °C80 %1013.2 hPaWSW (250°)25.9 km/h38.9 km/h
6:00 PM-6.3 °C-8.3 °C86 %1013.9 hPaWSW (250°)25.9 km/h
7:00 PM-6.4 °C-8.9 °C83 %1014.6 hPaWest (280°)16.7 km/h
7:00 PM-6.7 °C-8.9 °C78 %1014.6 hPaWest (280°)16.7 km/h
8:00 PM-6.8 °C-11.2 °C71 %1015.6 hPaWNW (290°)18.5 km/h
9:00 PM-7.2 °C-12 °C69 %1016.3 hPaWNW (300°)14.8 km/h
10:00 PM-8.1 °C-14.5 °C61 %1017.3 hPaWNW (290°)16.7 km/h27.8 km/h
11:00 PM-8.1 °C-14.8 °C59 %1017.6 hPaWNW (290°)14.8 km/h
Hourly data recorded from CXHA, located 0 kilometers away from Put In Bay, Ohio







STORIES FROM OUR PARTNERS